TimeCDT,TemperatureF,Dew PointF,Humidity,Sea Level PressureIn,VisibilityMPH,Wind Direction,Wind SpeedMPH,Gust SpeedMPH,PrecipitationIn,Events,Conditions,WindDirDegrees,DateUTC
12:20 AM,60.8,57.2,88,29.91,7.0,South,8.1,-,0.00,,Overcast,190,2011-10-12 05:20:00
12:29 AM,60.8,57.2,88,29.90,7.0,South,6.9,-,0.00,Rain,Light Rain,180,2011-10-12 05:29:00
12:44 AM,60.8,57.2,88,29.90,7.0,Calm,Calm,-,0.00,,Overcast,0,2011-10-12 05:44:00
12:54 AM,59.0,57.9,96,29.90,7.0,Calm,Calm,-,0.00,,Overcast,0,2011-10-12 05:54:00
1:07 AM,57.2,57.2,100,29.90,3.0,Calm,Calm,-,N/A,,Overcast,0,2011-10-12 06:07:00
1:54 AM,59.0,57.9,96,29.90,4.0,ESE,4.6,-,0.00,,Overcast,120,2011-10-12 06:54:00
2:11 AM,57.2,57.2,100,29.90,3.0,Calm,Calm,-,N/A,,Overcast,0,2011-10-12 07:11:00
2:42 AM,57.2,57.2,100,29.89,2.0,SSE,3.5,-,N/A,,Overcast,150,2011-10-12 07:42:00
2:49 AM,57.2,57.2,100,29.89,1.0,SE,3.5,-,N/A,,Overcast,140,2011-10-12 07:49:00
2:54 AM,57.9,57.9,100,29.89,0.8,Calm,Calm,-,N/A,,Overcast,0,2011-10-12 07:54:00
3:22 AM,57.2,57.2,100,29.89,1.2,Calm,Calm,-,N/A,,Overcast,0,2011-10-12 08:22:00
3:54 AM,57.9,57.0,97,29.89,2.0,South,3.5,-,N/A,,Overcast,180,2011-10-12 08:54:00
4:05 AM,57.2,57.2,100,29.89,3.0,SSE,3.5,-,N/A,,Overcast,160,2011-10-12 09:05:00
4:14 AM,57.2,57.2,100,29.90,1.5,SE,6.9,-,N/A,,Overcast,130,2011-10-12 09:14:00
4:22 AM,57.2,57.2,100,29.89,0.2,SE,3.5,-,N/A,Fog,Fog,140,2011-10-12 09:22:00
4:54 AM,57.0,57.0,100,29.90,0.2,Calm,Calm,-,N/A,Fog,Fog,0,2011-10-12 09:54:00
5:33 AM,57.2,57.2,100,29.90,1.0,Calm,Calm,-,N/A,,Overcast,0,2011-10-12 10:33:00
5:45 AM,57.2,57.2,100,29.90,0.8,Calm,Calm,-,N/A,,Overcast,0,2011-10-12 10:45:00
5:54 AM,57.9,57.0,97,29.90,0.5,Calm,Calm,-,N/A,Fog,Fog,0,2011-10-12 10:54:00
6:54 AM,57.9,57.9,100,29.90,0.8,Calm,Calm,-,N/A,,Overcast,0,2011-10-12 11:54:00
7:54 AM,57.9,57.9,100,29.89,0.8,Calm,Calm,-,N/A,,Overcast,0,2011-10-12 12:54:00
8:28 AM,57.2,57.2,100,29.88,1.0,Calm,Calm,-,N/A,,Overcast,0,2011-10-12 13:28:00
8:43 AM,57.2,57.2,100,29.88,3.0,Calm,Calm,-,N/A,,Overcast,0,2011-10-12 13:43:00
8:54 AM,57.9,57.9,100,29.88,3.0,Calm,Calm,-,N/A,,Overcast,0,2011-10-12 13:54:00
10:54 AM,60.1,57.9,93,29.87,1.8,SSE,4.6,-,N/A,,Overcast,150,2011-10-12 15:54:00
11:54 AM,60.1,57.9,93,29.86,1.8,SE,5.8,-,N/A,,Overcast,140,2011-10-12 16:54:00
11:57 AM,60.8,57.2,88,29.86,2.0,SE,4.6,-,N/A,,Overcast,130,2011-10-12 16:57:00
12:12 PM,60.8,57.2,88,29.86,3.0,SSE,5.8,-,N/A,,Overcast,150,2011-10-12 17:12:00
12:54 PM,62.1,57.9,86,29.85,4.0,Calm,Calm,-,N/A,,Overcast,0,2011-10-12 17:54:00
2:44 PM,64.4,57.2,77,29.79,5.0,Variable,3.5,-,N/A,,Haze,0,2011-10-12 19:44:00
2:54 PM,64.0,57.9,80,29.79,6.0,East,3.5,-,N/A,,Haze,100,2011-10-12 19:54:00
4:54 PM,69.1,57.9,68,29.75,10.0,ESE,3.5,-,N/A,,Clear,110,2011-10-12 21:54:00
5:54 PM,66.0,54.0,65,29.74,10.0,ESE,6.9,-,N/A,,Clear,120,2011-10-12 22:54:00
6:54 PM,61.0,53.1,75,29.75,10.0,ESE,3.5,-,N/A,,Clear,120,2011-10-12 23:54:00
7:54 PM,57.9,52.0,81,29.75,10.0,ESE,5.8,-,N/A,,Clear,110,2011-10-13 00:54:00
8:54 PM,55.0,51.1,86,29.73,8.0,SE,3.5,-,N/A,,Clear,130,2011-10-13 01:54:00
9:54 PM,53.1,50.0,89,29.73,7.0,Calm,Calm,-,N/A,,Clear,0,2011-10-13 02:54:00
11:19 PM,48.2,48.2,100,29.70,1.2,Calm,Calm,-,N/A,,Clear,0,2011-10-13 04:19:00
11:26 PM,48.2,48.2,100,29.70,0.5,Calm,Calm,-,N/A,Fog,Fog,0,2011-10-13 04:26:00
11:35 PM,48.2,46.4,93,29.70,2.0,Calm,Calm,-,N/A,,Clear,0,2011-10-13 04:35:00
11:51 PM,48.2,46.4,93,29.69,3.0,Calm,Calm,-,N/A,,Clear,0,2011-10-13 04:51:00
11:54 PM,48.0,48.0,100,29.71,3.0,Calm,Calm,-,N/A,,Clear,0,2011-10-13 04:54:00